Regional Weather Roundup
Issued by NWS

Home | Current Version | Previous Version | Graphics & Text | Print | Product List | Glossary On
Versions: 1 2 3 4 5 6 7 8 9 10 11 12 13 14 15 16 17 18 19 20 21 22 23 24 25 26 27 28
000
ASUS45 KTFX 170010
RWRMT
MONTANA REGIONAL WEATHER ROUNDUP
NATIONAL WEATHER SERVICE GREAT FALLS MT
500 PM MST SAT DEC 16 2017

NOTE: "FAIR" INDICATES FEW OR NO CLOUDS BELOW 12000 FEET WITH NO
SIGNIFICANT WEATHER AND/OR OBSTRUCTIONS TO VISIBILITY.

MTZ001>007-043-170100-
WEST OF THE DIVIDE

CITY           SKY/WX    TMP DP  RH WIND       PRES   REMARKS
KALISPELL      CLOUDY    28  26  92 CALM      30.12R
MISSOULA       MOCLDY    30  23  75 N8        30.13R WCI  22
BUTTE          FAIR      22  16  78 W6        30.00R WCI  14
MULLAN PASS    CLOUDY    18  14  84 VRB3      30.02R
ANACONDA         N/A     19  18  93 SW6       30.03S WCI  11
DEER LODGE       N/A     23  18  80 CALM      30.05R
EUREKA           N/A     27  21  80 MISG      30.12F
HAMILTON         N/A     27  25  93 CALM      30.12R
LIBBY            N/A     27  21  80 SE3       30.14R
PLAINS           N/A     32  19  58 SW1       30.17R
RONAN            N/A     24  21  88 CALM      30.15R
$$

MTZ008-052>055-170100-
SOUTHWEST MONTANA

CITY           SKY/WX    TMP DP  RH WIND       PRES   REMARKS
BOZEMAN        CLOUDY    27  25  92 SW7       30.02R WCI  19
DILLON         CLOUDY    25  20  81 SW7       30.00R WCI  17
W YELLOWSTONE  CLOUDY    25  18  74 N6        29.90R WCI  18
ENNIS          CLOUDY    23  21  93 W3        30.03R
THREE FORKS      N/A     24  22  92 CALM      30.01R VSB 0
$$

MTZ009-010-012-014-046-048-049-054-170100-
EAST SLOPES AND CENTRAL MONTANA

CITY           SKY/WX    TMP DP  RH WIND       PRES   REMARKS
CUT BANK       FAIR      21  13  71 W15       29.98R WCI   8
GREAT FALLS    FAIR      27  22  81 S5        30.00R
HELENA         FAIR      30  20  66 W6        30.02R WCI  24
CHOTEAU          N/A     28  18  64 NW7       30.01R WCI  21
RAYNESFORD     FAIR      23  21  91 S5        30.00
$$

MTZ011-013-016-021-045-047-050-051-170100-
NORTH CENTRAL MONTANA

CITY           SKY/WX    TMP DP  RH WIND       PRES   REMARKS
HAVRE          CLOUDY    31  30  96 CALM      30.03R
LEWISTOWN      CLOUDY    28  26  92 SW7       30.00R WCI  21
N BAR RANCH    CLOUDY    27  16  63 S5        30.01S
CHINOOK          N/A     32  27  80 W3        30.04R
GEYSER         FAIR      27  22  82 S12       29.99S WCI  16
STANFORD       FAIR      18  18  98 SW9       29.99R WCI   7
$$

MTZ017>020-022>027-061-062-170100-
NORTHEAST MONTANA

CITY           SKY/WX    TMP DP  RH WIND       PRES   REMARKS
GLASGOW        FAIR      29  20  69 W6        30.01R WCI  23
GLENDIVE       FAIR      28  20  71 NW8       30.02R WCI  20
JORDAN           N/A     29  16  58 NW6       30.02R WCI  23
SIDNEY         FAIR      32  21  64 W9        30.01R WCI  24
WOLF POINT     FAIR      31  22  69 SW7       30.02R WCI  24
MALTA          CLOUDY    30  25  80 W7        30.04R WCI  23
PLENTYWOOD       N/A     30  18  59 CALM      29.97R
POPLAR           N/A     28  21  74 W5        30.02R
SCOBEY           N/A     29  11  47 CALM      29.96R
$$

MTZ028>42-056>058-170100-
SOUTHCENTRAL AND SOUTHEAST MONTANA

CITY           SKY/WX    TMP DP  RH WIND       PRES   REMARKS
BAKER          MOCLDY    30  26  85 W5        30.02R
BILLINGS       LGT SNOW  30  29  96 N6        30.03R FOG     WCI  24
LIVINGSTON     LGT SNOW  27  26  96 S6        30.00R FOG     WCI  20
MILES CITY     FAIR      33  24  69 CALM      30.03R
BIG TIMBER     CLOUDY    27  27 100 N5        30.03R FOG
EKALAKA          N/A     30  21  69 NW2       29.97R
FORSYTH          N/A     36  25  64 CALM      30.03R
LAUREL           N/A     30  28  93 N6        30.05R FOG     WCI  24
ROUNDUP          N/A     33  24  70 S5        29.94R
$$

REGIONAL REPORTS...DAKOTAS

CITY           SKY/WX    TMP DP  RH WIND       PRES   REMARKS
WILLISTON      FAIR      21  18  88 CALM      29.99R
MINOT          FAIR      33  22  63 SW14      29.95R WCI  23
DICKINSON      FAIR      27  21  78 W8        29.98R WCI  19
BEACH          FAIR      28  23  80 W7        30.03R WCI  21
CROSBY         FAIR      28  19  69 W12       29.96R WCI  18
TIOGA          FAIR      25  25 100 SW9       29.97R WCI  15
WATFORD CITY   FAIR      28  23  80 SW6       29.99R WCI  22
BISMARCK       FAIR      33  30  88 W7        30.01R WCI  27
GRAND FORKS    FAIR      16  15  96 S5        30.00R
FARGO          FAIR      24  23  96 SW3       30.01R FOG
BUFFALO SD       N/A     33  23  66 N8        29.94R WCI  26
RAPID CITY     CLOUDY    34  26  72 NW9       29.99R WCI  27
$$

REGIONAL REPORTS...WYOMING/IDAHO/WASHINGTON

CITY           SKY/WX    TMP DP  RH WIND       PRES   REMARKS
GILLETTE       LGT SNOW  28  26  92 NE7       29.97  FOG     WCI  21
SHERIDAN       LGT SNOW  29  29 100 N3        30.00R FOG
BUFFALO WY     LGT SNOW  27  22  81 NW7       29.97S WCI  19
CODY           FLURRIES  26  22  84 N12       29.95R WCI  16
YELLOWSTONE LA   N/A     20  17  88 CALM      29.88R
IDAHO FALLS    LGT SNOW  24  23  96 SW10      30.00R FOG     WCI  14
SALMON         FAIR      27  22  81 CALM      30.07R
BOISE          FAIR      35  25  66 NW16      30.11R WCI  25
SPOKANE        LGT SNOW  24  24 100 SE5       30.24R FOG
$$

REGIONAL REPORTS...ALBERTA

CITY           SKY/WX    TMP DP  RH WIND       PRES   REMARKS
EDMONTON       CLEAR     27  14  59 SW6       29.82F WCI  20
CALGARY        PTCLDY    30   3  31 W6        29.87S WCI  24
LETHBRIDGE     PTCLDY    25  18  74 S18       29.94F WCI  11
MEDICINE HAT   PTCLDY    30  27  86 S7        29.97F WCI  23
$$

REGIONAL REPORTS...SASKATCHEWAN

CITY           SKY/WX    TMP DP  RH WIND       PRES   REMARKS
SWIFT CURRENT  CLEAR     25  14  63 SW13      29.93R WCI  13
REGINA         CLEAR     25  19  80 W9        29.90R WCI  15
SASKATOON      FLURRIES  28  25  86 W9        29.87R WCI  20
$$




USA.gov is the U.S. government's official web portal to all federal, state and local government web resources and services.